Regional Weather Roundup
Issued by NWS Cleveland, OH

Home | Current Version | Previous Version | Graphics & Text | Print | Product List | Glossary On
Versions: 1 2 3 4 5 6 7 8 9 10 11 12 13 14 15 16 17 18 19 20 21 22 23 24 25 26 27 28 29 30 31 32 33 34 35 36 37 38 39 40 41 42 43 44 45 46 47 48 49 50
000
ASUS41 KCLE 252310
RWRCLE
OHIO REGIONAL WEATHER ROUNDUP
NATIONAL WEATHER SERVICE WILMINGTON, OH
700 PM EDT WED APR 25 2018

NOTE: "FAIR" INDICATES FEW OR NO CLOUDS BELOW 12,000 FEET WITH NO
SIGNIFICANT WEATHER AND/OR OBSTRUCTIONS TO VISIBILITY.

OHZ001>008-015>018-024>027-034-035-043-044-260000-
   NORTHWEST OHIO

CITY           SKY/WX    TMP DP  RH WIND       PRES   REMARKS
DEFIANCE       FAIR      62  34  35 NW10      29.91S
FINDLAY        FAIR      63  34  33 NW12      29.89S
TOLEDO EXPRESS FAIR      62  35  36 N9        29.90S
TOLEDO EXEC    FAIR      57  41  55 E12       29.91S
LIMA           FAIR      61  42  49 NW8       29.90F
$$

OHZ009>014-019>023-028>033-038-089-260000-
   NORTHEAST OHIO

CITY           SKY/WX    TMP DP  RH WIND       PRES   REMARKS
CLE-HOPKINS    PTSUNNY   47  41  80 N9        29.96S
CLE-LAKEFRONT  FAIR      46  41  82 NE5       29.93F
CUY CO. ARPT   PTSUNNY   46  41  81 N12       29.94R
LORAIN-ELYRIA  FAIR      49  39  68 NE17      29.93F
ASHTABULA      CLOUDY    42  39  89 NW15G25   29.92R
AKRON-CANTON   CLOUDY    49  41  74 N13       29.91R
WOOSTER        PTSUNNY   51  43  74 N15       29.92S
MANSFIELD      CLOUDY    54  44  69 NW7       29.90F
YOUNGSTOWN     CLOUDY    45  41  86 NW18      29.89R
$$

OHZ042-051>053-060>062-070>072-077>081-260000-
  SOUTHWEST OHIO

CITY           SKY/WX    TMP DP  RH WIND       PRES   REMARKS
CINC-COVINGTON PTSUNNY   63  46  54 N10       29.91F
CINC-LUNKEN    FAIR      65  48  54 N7        29.92S
HAMILTON       FAIR      64  43  46 NW9       29.92F
DAYTON         FAIR      61  45  55 N10       29.92F
WRIGHT-PAT AFB MOSUNNY   62  44  52 NW9       29.91F
DAYTON GENERAL FAIR      64  42  44 NW9       29.91S
WILMINGTON     FAIR      63  45  51 NW12      29.91F
$$

OHZ036-037-039>041-045>050-054>059-063>069-073>076-082>088-260000-
  CENTRAL AND SOUTHEAST OHIO

CITY           SKY/WX    TMP DP  RH WIND       PRES   REMARKS
COLUMBUS       FAIR      59  45  59 NW8       29.90F
OSU AIRPORT    FAIR      58  45  62 NW7       29.90F
BOLTON FIELD   MOSUNNY   59  46  63 NW10      29.92S
RICKENBACK AFB PTSUNNY   59  45  59 N8        29.91S
NEWARK         FAIR      58  45  62 N7        29.90F
MARION         PTSUNNY   60  43  53 NW10      29.90F
LANCASTER      FAIR      58  47  66 N10       29.91S
ZANESVILLE     CLOUDY    55  44  66 N12       29.92R
NEW PHILLY     CLOUDY    51  44  77 N5        29.92R
$$




USA.gov is the U.S. government's official web portal to all federal, state and local government web resources and services.